Change the Weather History Date:

Thursday, January 3, 2013

  Actual Average Record
Temperature  
Mean Temperature 26 °F -  
Max Temperature 35 °F 40 °F 68 °F (2000)
Min Temperature 17 °F 23 °F 0 °F (1931)
Degree Days  
Heating Degree Days 39    
Moisture  
Dew Point 18 °F    
Average Humidity 69    
Maximum Humidity 89    
Minimum Humidity 52    
Precipitation  
Precipitation 0.00 in - - ()
Sea Level Pressure  
Sea Level Pressure 30.22 in    
Wind  
Wind Speed 3 mph (WSW)    
Max Wind Speed 12 mph    
Max Gust Speed 18 mph    
Visibility 10 miles    
Events      
Averages and records for this station are not official NWS values.
T = Trace of Precipitation, MM = Missing Value Source: NWS Daily Summary

Daily Weather History Graph

Daily Weather History Graph

Search for Another Location

Airport or City:

Trip Planner

Search our weather history database for the weather conditions in past years. The results will help you decide how hot, cold, wet, or windy it might be!

Date:

Astronomy

Jan. 03, 2013 Rise Set
Actual Time 7:40 AM EST 5:10 PM EST
Civil Twilight 7:10 AM EST 5:40 PM EST
Nautical Twilight 6:37 AM EST 6:13 PM EST
Astronomical Twilight 6:04 AM EST 6:46 PM EST
Moon 11:41 PM EST (1/3) 10:54 AM EST (1/3)
Length of Visible Light 10h 29m
Length of Day
9h 29m
Waning Gibbous, 65% of the Moon is Illuminated
Jan 3
Waning Gibbous
Jan 4
Last Quarter
Jan 11
New
Jan 18
First Quarter
Jan 26
Full

Hourly Weather History & Observations

Time (EST) Temp. Windchill Dew Point Humidity Pressure Visibility Wind Dir Wind Speed Gust Speed Precip Events Conditions
12:53 AM 21.9 °F - 17.1 °F 82% 30.20 in 10.0 mi Calm Calm - N/A   Clear
1:53 AM 21.9 °F - 17.1 °F 82% 30.20 in 10.0 mi Calm Calm - N/A   Clear
2:53 AM 21.9 °F - 17.1 °F 82% 30.21 in 10.0 mi Calm Calm - N/A   Clear
3:53 AM 21.0 °F - 17.1 °F 85% 30.20 in 10.0 mi Calm Calm - N/A   Clear
4:53 AM 19.9 °F - 17.1 °F 89% 30.21 in 9.0 mi Calm Calm - N/A   Clear
5:53 AM 19.0 °F - 15.1 °F 85% 30.22 in 8.0 mi Calm Calm - N/A   Clear
6:53 AM 19.0 °F - 15.1 °F 85% 30.22 in 8.0 mi Calm Calm - N/A   Clear
7:53 AM 17.1 °F - 14.0 °F 88% 30.24 in 10.0 mi Calm Calm - N/A   Clear
8:53 AM 21.0 °F - 17.1 °F 85% 30.25 in 9.0 mi Calm Calm - N/A   Clear
9:53 AM 24.1 °F 19.7 °F 19.0 °F 81% 30.26 in 10.0 mi SSW 3.5 mph - N/A   Clear
10:53 AM 28.0 °F 20.8 °F 19.0 °F 69% 30.25 in 10.0 mi SW 6.9 mph - N/A   Clear
11:53 AM 30.9 °F 22.8 °F 19.0 °F 61% 30.22 in 10.0 mi WSW 9.2 mph - N/A   Clear
12:53 PM 32.0 °F 23.0 °F 19.9 °F 61% 30.19 in 10.0 mi SW 11.5 mph - N/A   Clear
1:53 PM 34.0 °F 26.6 °F 19.0 °F 54% 30.17 in 10.0 mi SW 9.2 mph - N/A   Clear
2:53 PM 35.1 °F 27.4 °F 19.0 °F 52% 30.17 in 10.0 mi WSW 10.4 mph - N/A   Clear
3:53 PM 35.1 °F 28.6 °F 19.0 °F 52% 30.18 in 10.0 mi West 8.1 mph - N/A   Clear
4:53 PM 35.1 °F 27.9 °F 19.0 °F 52% 30.19 in 10.0 mi WSW 9.2 mph - N/A   Clear
5:53 PM 33.1 °F 27.7 °F 18.0 °F 54% 30.22 in 10.0 mi WSW 5.8 mph - N/A   Clear
6:53 PM 32.0 °F 25.6 °F 18.0 °F 56% 30.22 in 10.0 mi WSW 6.9 mph - N/A   Clear
7:53 PM 32.0 °F 24.8 °F 19.0 °F 59% 30.24 in 10.0 mi SW 8.1 mph - N/A   Overcast
8:53 PM 32.0 °F 23.6 °F 19.0 °F 59% 30.24 in 10.0 mi WNW 10.4 mph - N/A   Overcast
9:53 PM 32.0 °F 24.2 °F 18.0 °F 56% 30.25 in 10.0 mi West 9.2 mph - N/A   Overcast
10:53 PM 30.9 °F 22.2 °F 18.0 °F 59% 30.26 in 10.0 mi West 10.4 mph - N/A   Overcast
11:53 PM 30.0 °F 21.1 °F 17.1 °F 59% 30.25 in 10.0 mi West 10.4 mph 18.4 mph N/A   Overcast